HIMAWARI-7 (MTSAT-2)

Last updated on May 20, 2020, 5:09 a.m. UTC

1 28937U 06004A   20140.78494914 -.00000269  00000-0  00000+0 0  9999
2 28937   0.1472  55.1914 0001466  48.8841 190.4578  0.99090548 52094
UTC
Height (km)
Latitude
Longitude
Inclination
Orbital Period
UTC large
Height (km)
Speed (km/s)
/
Latitude / Longitude
Inclination (degrees)
Orbital Period (minutes)
Azimuth
Elevation
Range (km)
Doppler Factor
iOS Compass Heading
iOS Angle

Next 30 passes for location: Hong Kong

Rise time Rise Azimuth (degrees) Set time Set Azimuth (degrees) Duration Max altitude (degrees)

No matching passes for this satellites